COSMOS 1473

Satellite information

Favourite Embed

Satellite Type and Status

PAYLOADIN ORBIT

Key statistics

Satellite COSMOS 1473 at a glance.

Uptime

15507

Days in orbit

Revolutions

≈ 12.6

Per day

Orbit

LEO

Low Earth Orbit

Inclination

74.0

Latest

Satellite identification and parameters

Extended collection of information and parameters for COSMOS 1473.

Object identification

Identified? True

Debris? False

Object name: COSMOS 1473

International designator: 1983-069A

Object number (NORAD): 14171

Object ID (CCSDS): 14171

Country: COMMONWEALTH OF INDEPENDENT STATES (CIS)

Current information (Y/N): Y

RCS size: MEDIUM

Orbital parameters

Period: 114.398 minutes

Inclination: 74.0242 deg

SMA: 7806.189 km

Apoapsis: 1462.234 km

Periapsis: 1393.874 km

RAAN: 232.9649 deg

Eccentricy: 0.00437859

Argument of periapsis: 169.38 deg

Mean anomaly: 256.3673 deg

Mean motion: 12.58763557 rev/day

Mean motion (dot): 0.00000003 rev/day2

B* drag term: 0.00011220224 1/REarth

Two-line elements (TLE)

Creation date: Dec. 19, 2025, 2:08 a.m.

Reference frame: TEME

Reference center: EARTH

Epoch: Dec. 18, 2025, 7:09 p.m. UTC

TLE line 0: 0 COSMOS 1473

TLE line 1: 1 14171U 83069A 25352.79857226 .00000003 00000-0 11220-3 0 9995

TLE line 2: 2 14171 74.0242 232.9649 0043786 169.3800 256.3673 12.58763557950831

Live tracking on map

Real-time ground track for satellite COSMOS 1473.

In-orbit conjunctions

There are no conjunctions computed for COSMOS 1473, at the moment. Check back to stay up to date, as we update our databases every day.

Go to all conjunctions

Associated space launch

Military communications satellites

COSMOS 1473 was lifted into orbit during the mission ‘Kosmos-3M | Strela-1M 265-272’, on board a Kosmos-3M space rocket.

The launch took place on July 6, 1983, 12:31 a.m. from 132/2.

For more information about the launch, click the button.

Launch to space Kosmos-3M | Strela-1M 265-272
Kosmos-3M | Strela-1M 265-272

Agency: N/A

Status: Launch Successful

Launch date: July 6, 1983, 12:31 a.m. UTC

Rocket: Kosmos-3M

Launch pad: 132/2

Location: Plesetsk Cosmodrome, Russian Federation

...

Latest news about this satellite

There are no fresh news available about this satellite. Check back as we update our databases every day.


Newsletter sign-up

Weekly statistics, charts and insights to help you stay on top of the space industry.